Temp
10 10 10 10 9 9 9 9 9 9 9 8 8 8 8 8 8 8 8 8 9 9 10 10 9 9 9 9 9 9 9 9 9 10 9 9 9 9 9 9 9 9 9
10 9 10 10 10 10 10 10 9 9 9 8 8 8 9 9 9 8 8 8 9 9 9 10 10 9 9 9 9 9 9 9 9 10 9 9 9 9 9 9 9 9 8
10 9 9 9 9 9 9 9 9 9 8 8 8 9 9 8 8 8 8 8 9 9 9 10 10 9 9 9 9 9 9 9 9 10 9 9 9 9 9 8 9 9 9
9 9 9 9 9 9 9 9 8 8 9 9 8 9 9 9 9 8 9 9 9 9 9 9 9 9 9 9 9 9 9 9 9 9 9 9 9 9 9 9 9 9 9
9 9 9 8 8 9 9 9 8 9 8 8 9 9 9 9 9 8 9 9 9 9 9 9 9 9 9 9 9 9 9 9 9 9 9 9 9 9 9 9 8 9 9
9 8 9 9 9 10 10 10 9 9 9 8 8 9 8 10 9 9 8 9 9 9 9 9 9 9 9 9 9 9 9 9 9 9 10 9 9 9 9 9 8 9 9
9 9 9 8 10 10 10 9 9 9 9 9 9 9 9 8 8 8 8 8 8 9 9 9 9 9 9 9 9 9 9 9 9 9 9 9 9 9 8 9 9 8 8
9 10 10 10 10 9 9 9 9 9 8 8 9 9 9 9 8 8 8 9 8 8 9 9 9 9 9 9 9 9 9 9 9 9 8 9 8 8 8 8 8 8 8
9 9 10 9 9 9 8 8 8 8 8 8 8 8 8 9 9 8 8 9 9 9 9 9 8 9 9 8 8 9 9 9 9 9 9 8 8 8 8 8 7 7 7
9 9 10 9 9 9 8 8 8 8 8 8 8 8 8 9 9 9 9 9 9 9 9 10 9 9 9 8 8 9 8 9 8 8 8 8 8 8 8 7 7 7 6
9 9 9 9 8 8 8 8 8 8 8 8 8 8 9 9 9 9 9 9 9 9 9 10 9 8 8 8 8 8 9 8 8 7 7 7 7 7 7 6 6 6 6
9 9 8 8 8 8 8 8 7 7 8 8 9 10 11 10 10 10 10 9 9 9 9 9 10 9 8 8 8 8 8 8 8 8 7 7 7 7 6 6 6 6 6
9 9 8 8 8 8 7 7 7 8 8 9 10 11 11 11 11 11 10 10 10 9 9 9 9 9 9 8 8 9 9 8 7 7 7 7 7 7 7 6 6 5 5
9 8 8 8 7 7 7 7 7 7 8 8 9 10 9 10 10 10 10 10 10 10 10 9 9 9 9 9 8 8 9 8 8 8 7 7 7 6 6 6 6 5 4
8 7 7 6 7 6 6 7 7 7 8 8 8 8 8 9 7 7 8 9 9 10 10 9 9 9 9 9 9 8 8 8 7 7 7 6 6 6 6 4 5 3 2
7 6 6 6 6 6 6 7 7 7 8 8 8 8 6 7 6 5 5 5 6 6 6 8 9 9 9 9 9 8 7 7 7 7 7 6 6 4 4 3 3 2 -0
6 6 6 6 6 6 7 7 7 7 8 8 7 7 5 5 5 6 6 5 6 6 6 6 7 7 6 6 6 6 6 6 6 6 5 6 4 3 3 2 1 2 1
6 6 6 6 6 6 7 7 7 7 7 7 7 6 3 3 3 5 6 5 6 6 6 6 6 6 6 5 5 5 5 5 5 5 4 3 3 2 2 2 3 1 2
6 6 6 6 6 6 7 6 6 6 6 6 6 6 3 2 1 4 4 5 5 6 5 5 6 5 4 5 4 5 5 4 3 2 2 2 2 2 1 2 1 2 2
6 6 5 5 5 5 6 5 6 6 6 5 6 5 5 3 2 1 2 2 2 2 3 3 3 3 2 2 2 3 2 2 2 2 2 2 2 2 2 2 3 2 1
5 5 5 5 5 5 5 5 5 6 5 5 5 5 4 4 3 3 4 3 1 1 1 1 1 1 1 2 2 1 2 2 2 2 1 1 2 2 3 2 1 1 1
4 4 4 4 4 4 5 5 5 5 5 5 5 5 4 3 2 2 2 2 2 2 2 2 2 2 2 1 1 2 1 2 2 2 2 3 3 2 2 2 1 1 1
4 4 3 4 4 4 4 5 5 5 5 4 5 4 4 4 3 3 3 3 2 2 2 2 2 2 2 2 2 2 3 3 3 3 3 3 2 2 2 2 1 0 -0
3 4 4 4 4 4 4 4 4 4 5 4 4 4 4 4 4 4 4 4 4 3 3 3 3 3 3 3 3 3 3 3 3 3 3 3 2 2 1 1 0 -0 -0
4 3 3 3 3 3 3 3 3 3 4 4 4 4 4 4 3 3 4 4 4 3 3 3 3 3 3 3 3 3 3 3 2 2 2 2 1 1 0 0 -0 -1 -0
3 3 3 3 3 3 2 1 1 2 2 3 4 4 4 4 3 3 3 4 4 3 3 3 4 4 3 3 3 3 3 2 2 2 2 2 1 1 0 -0 -0 -1 -1
Height
3169 3172 3174 3175 3177 3179 3181 3183 3184 3185 3186 3187 3188 3189 3190 3190 3191 3191 3192 3193 3192 3193 3194 3194 3196 3197 3196 3196 3196 3196 3198 3198 3198 3199 3199 3199 3198 3198 3197 3197 3197 3196 3195
3167 3170 3172 3174 3175 3176 3178 3180 3181 3183 3183 3183 3184 3184 3185 3185 3186 3185 3187 3189 3189 3189 3190 3189 3191 3191 3192 3191 3191 3192 3193 3193 3193 3195 3195 3195 3194 3194 3194 3195 3193 3192 3192
3164 3167 3169 3171 3173 3174 3176 3177 3178 3179 3179 3179 3178 3178 3179 3180 3181 3181 3182 3182 3182 3184 3184 3185 3186 3186 3186 3187 3187 3187 3187 3188 3188 3189 3190 3190 3189 3190 3191 3191 3191 3189 3188
3161 3163 3165 3166 3168 3170 3171 3173 3174 3172 3172 3173 3172 3172 3173 3173 3173 3174 3174 3176 3176 3177 3177 3177 3179 3180 3181 3182 3182 3182 3182 3182 3182 3183 3184 3184 3184 3185 3185 3186 3185 3184 3184
3157 3159 3161 3162 3163 3164 3165 3165 3166 3167 3165 3165 3165 3168 3167 3168 3169 3169 3168 3167 3169 3171 3172 3172 3172 3174 3174 3175 3174 3176 3176 3176 3177 3177 3179 3178 3178 3179 3179 3180 3179 3179 3179
3152 3153 3152 3151 3155 3159 3161 3161 3161 3162 3161 3160 3160 3158 3158 3157 3159 3160 3162 3162 3162 3163 3164 3165 3165 3165 3166 3168 3168 3168 3168 3169 3170 3170 3172 3172 3173 3173 3173 3174 3173 3173 3174
3148 3148 3147 3141 3148 3154 3157 3156 3156 3155 3154 3153 3153 3153 3151 3152 3151 3152 3151 3151 3152 3153 3154 3156 3156 3157 3158 3158 3160 3161 3161 3161 3162 3164 3164 3165 3167 3167 3167 3167 3167 3168 3168
3142 3144 3143 3142 3146 3150 3152 3151 3151 3149 3148 3146 3145 3143 3142 3143 3143 3143 3142 3142 3140 3140 3143 3145 3147 3148 3150 3151 3152 3152 3154 3155 3155 3156 3157 3159 3159 3159 3160 3160 3160 3160 3161
3139 3141 3141 3141 3144 3145 3146 3145 3144 3143 3141 3139 3138 3136 3134 3133 3132 3133 3132 3132 3131 3132 3134 3135 3136 3138 3141 3142 3143 3143 3144 3145 3146 3148 3149 3151 3151 3152 3152 3153 3153 3153 3154
3134 3137 3136 3138 3139 3139 3139 3138 3137 3135 3134 3132 3130 3127 3124 3122 3121 3120 3119 3118 3119 3120 3122 3123 3125 3126 3129 3131 3132 3134 3134 3137 3137 3138 3139 3141 3143 3143 3143 3144 3144 3144 3145
3130 3131 3132 3133 3132 3131 3131 3130 3129 3127 3125 3123 3119 3115 3111 3107 3106 3105 3104 3102 3104 3106 3107 3111 3114 3116 3118 3120 3122 3123 3125 3126 3126 3126 3126 3126 3129 3132 3132 3132 3133 3134 3135
3126 3126 3128 3126 3125 3125 3124 3123 3122 3120 3117 3112 3107 3100 3093 3088 3086 3086 3085 3086 3088 3089 3095 3099 3103 3106 3108 3109 3109 3113 3114 3114 3115 3111 3107 3114 3117 3109 3115 3118 3122 3123 3125
3121 3122 3121 3119 3119 3119 3118 3117 3116 3114 3110 3103 3093 3083 3076 3071 3067 3065 3066 3067 3070 3073 3080 3087 3090 3094 3097 3099 3102 3105 3107 3108 3109 3108 3109 3109 3108 3103 3106 3106 3113 3113 3117
3115 3115 3114 3114 3114 3114 3114 3112 3110 3108 3104 3096 3085 3073 3065 3058 3053 3051 3050 3050 3053 3058 3065 3072 3078 3083 3086 3090 3094 3096 3099 3101 3103 3104 3104 3105 3105 3105 3100 3098 3099 3107 3108
3107 3107 3108 3109 3110 3109 3108 3108 3106 3105 3100 3092 3079 3066 3056 3050 3044 3041 3039 3038 3040 3044 3051 3058 3065 3072 3077 3081 3086 3089 3091 3093 3095 3097 3098 3098 3098 3095 3093 3097 3102 3103 3102
3100 3103 3105 3107 3107 3107 3106 3105 3103 3101 3096 3087 3076 3065 3052 3043 3039 3038 3037 3035 3036 3039 3040 3047 3055 3062 3067 3071 3076 3080 3084 3086 3087 3089 3090 3091 3092 3091 3093 3095 3098 3100 3105
3098 3102 3103 3106 3105 3104 3103 3102 3100 3098 3092 3085 3078 3066 3052 3042 3037 3035 3036 3034 3036 3038 3041 3044 3049 3054 3060 3064 3069 3073 3077 3079 3080 3083 3085 3086 3087 3090 3094 3098 3100 3101 3104
3098 3100 3102 3103 3103 3102 3099 3099 3098 3095 3091 3086 3080 3067 3055 3045 3040 3037 3036 3035 3037 3037 3040 3045 3048 3051 3055 3060 3063 3068 3072 3075 3077 3079 3080 3085 3088 3091 3094 3099 3099 3103 3106
3097 3098 3099 3101 3101 3100 3097 3098 3096 3093 3090 3086 3082 3073 3059 3049 3045 3042 3040 3039 3039 3040 3043 3045 3044 3045 3053 3058 3062 3064 3069 3072 3074 3078 3082 3080 3087 3092 3096 3102 3104 3106 3105
3094 3096 3098 3099 3099 3098 3097 3096 3095 3093 3090 3088 3084 3079 3071 3065 3059 3053 3050 3048 3047 3048 3049 3051 3053 3053 3053 3058 3062 3064 3068 3074 3077 3080 3086 3090 3094 3097 3099 3102 3103 3103 3106
3092 3093 3094 3096 3097 3097 3095 3095 3094 3093 3091 3088 3086 3082 3077 3073 3071 3070 3067 3062 3058 3057 3058 3059 3061 3061 3062 3064 3066 3071 3076 3080 3083 3087 3092 3094 3095 3097 3097 3098 3100 3102 3104
3087 3089 3091 3093 3094 3094 3094 3093 3093 3092 3091 3089 3088 3085 3082 3079 3078 3078 3077 3076 3074 3072 3071 3072 3073 3075 3076 3076 3080 3081 3082 3086 3089 3090 3091 3093 3095 3095 3096 3097 3099 3100 3102
3084 3086 3089 3091 3092 3091 3092 3091 3091 3091 3091 3089 3088 3087 3085 3084 3083 3081 3080 3080 3079 3078 3078 3078 3079 3079 3079 3080 3081 3082 3085 3086 3088 3090 3091 3092 3092 3094 3096 3097 3098 3099 3100
3082 3085 3086 3087 3088 3088 3089 3089 3088 3089 3089 3088 3087 3086 3086 3085 3085 3085 3084 3084 3083 3083 3083 3083 3084 3085 3085 3085 3086 3087 3088 3088 3089 3089 3090 3090 3091 3093 3094 3094 3095 3096 3096
3078 3081 3082 3084 3085 3085 3086 3086 3086 3086 3086 3086 3086 3086 3086 3086 3086 3086 3085 3085 3085 3085 3085 3084 3085 3085 3086 3086 3086 3086 3087 3088 3088 3089 3089 3090 3090 3090 3090 3091 3092 3092 3092
3075 3077 3079 3080 3081 3082 3083 3084 3084 3084 3083 3084 3084 3084 3084 3084 3085 3086 3087 3086 3085 3085 3085 3085 3086 3086 3086 3086 3086 3087 3087 3087 3088 3088 3087 3087 3087 3088 3088 3088 3089 3090 3090
Wind_Speed
13 9 10 13 15 15 16 15 15 15 17 19 20 21 21 22 21 22 22 20 19 21 22 21 22 20 20 19 20 21 21 20 21 18 18 18 16 14 13 12 10 13 13
17 13 12 11 12 14 13 14 14 15 17 19 22 24 24 24 22 22 22 19 20 21 22 23 22 24 23 22 21 22 22 23 21 17 17 19 18 16 15 12 10 16 17
17 17 16 17 16 14 14 15 15 17 18 22 24 25 25 24 24 23 24 24 22 21 21 22 22 24 23 22 23 24 23 24 24 19 18 19 21 20 17 17 17 17 17
19 19 19 18 19 19 21 22 24 27 28 28 28 27 26 26 26 27 27 25 25 25 24 23 22 23 23 22 23 22 24 25 24 22 20 19 21 19 19 21 20 19 19
18 18 17 15 16 20 20 23 28 29 28 28 33 32 30 32 31 30 29 28 27 26 25 25 25 24 25 24 24 23 24 25 25 24 23 20 20 18 17 19 20 20 20
22 22 22 21 15 16 17 19 19 18 20 22 20 24 30 46 40 39 39 33 31 30 29 28 29 28 28 28 27 26 26 27 25 26 25 24 23 21 21 21 22 23 23
23 21 23 22 13 17 18 20 19 20 22 24 23 23 25 25 29 30 35 35 37 39 36 34 33 33 32 32 32 32 31 30 28 28 28 27 25 23 25 25 24 24 24
24 21 20 20 19 22 23 23 23 23 26 28 28 29 30 29 29 32 32 37 40 38 39 37 38 36 36 35 34 35 34 34 33 32 30 28 28 28 28 27 26 27 26
23 23 23 23 24 26 26 26 27 29 31 31 32 33 36 35 35 35 37 38 41 40 40 44 38 41 41 38 37 35 35 36 36 36 34 32 32 31 31 31 29 28 27
25 26 26 26 27 27 28 31 33 33 32 33 34 37 39 40 42 43 44 45 45 43 42 39 38 39 43 40 41 41 40 38 37 37 36 35 35 35 34 33 31 31 29
28 28 27 29 29 30 31 32 31 31 31 33 36 40 44 46 45 46 48 50 49 48 47 44 39 35 36 38 37 42 43 43 45 45 37 37 39 40 39 36 34 31 29
27 27 29 30 30 30 31 29 25 23 24 26 35 37 41 43 46 48 52 53 50 50 46 42 42 41 38 36 35 35 36 38 36 31 34 36 40 51 42 36 34 33 36
28 29 29 30 30 26 22 17 16 16 26 35 39 37 35 34 37 41 47 50 51 52 48 43 42 42 40 40 37 37 36 33 31 29 28 32 48 41 49 40 38 34 34
31 30 29 24 19 16 14 14 11 14 25 33 39 34 28 26 26 30 33 38 44 49 49 48 44 41 40 39 38 38 36 36 35 34 36 30 31 30 36 42 34 33 33
24 19 15 12 11 12 9 10 16 16 21 30 40 46 35 21 20 20 23 23 32 40 44 48 47 44 40 38 36 36 36 36 35 35 34 33 32 49 41 30 28 25 13
15 14 10 6 5 6 8 12 15 19 20 29 36 46 31 26 17 13 12 11 13 10 23 36 40 41 40 37 35 33 32 32 31 30 32 23 30 36 32 26 24 15 24
16 12 9 6 4 7 10 13 15 16 18 26 32 38 28 20 16 8 9 3 10 11 13 12 21 24 28 27 27 26 26 28 25 24 23 31 30 23 15 14 23 26 26
16 13 10 5 6 10 11 13 15 14 17 22 32 39 28 19 11 6 4 10 8 1 10 6 12 11 12 19 17 19 20 22 20 28 27 23 15 13 18 27 27 19 13
14 12 10 7 8 11 10 12 13 13 14 17 28 40 47 33 30 18 18 12 2 3 6 8 23 19 10 12 9 11 17 22 25 17 4 10 20 28 26 17 12 12 9
17 14 11 11 10 11 10 11 11 10 11 13 14 25 31 38 38 28 27 24 21 18 16 15 15 21 24 23 22 21 17 11 16 12 16 22 20 13 12 13 10 8 6
17 15 12 11 11 11 10 11 9 7 7 9 10 11 16 23 30 32 34 32 26 18 11 8 11 12 15 13 17 19 15 15 21 21 19 16 13 11 9 7 8 7 6
18 18 15 13 12 11 10 10 8 7 4 5 6 7 9 11 15 16 17 18 21 24 27 27 25 22 20 20 17 16 14 11 12 11 9 8 7 6 6 6 6 5 6
20 19 15 14 13 12 10 10 8 7 5 2 2 3 6 7 7 7 8 8 7 6 6 6 5 4 4 4 6 7 9 9 9 8 7 6 5 5 5 6 6 6 8
17 16 16 15 14 13 11 9 9 8 7 5 3 1 1 2 3 4 5 6 7 7 7 7 7 7 8 7 7 7 7 6 6 5 6 6 7 7 7 7 7 8 8
18 17 15 15 13 9 6 5 7 8 8 8 7 5 4 3 2 1 0 2 2 2 2 1 1 1 1 1 1 2 2 2 3 4 5 6 6 6 7 7 7 7 8
18 16 14 15 15 13 9 5 4 3 8 9 8 6 6 6 6 5 5 5 4 3 3 3 2 2 2 2 2 2 2 3 5 5 4 4 5 7 8 8 8 9 10
Wind_Direction
229 243 252 242 244 248 249 247 243 238 241 245 245 244 245 248 251 250 250 257 249 256 255 254 254 252 250 260 257 257 260 268 271 274 277 279 283 290 290 276 269 279 294
225 237 249 251 245 246 255 259 258 256 251 250 252 252 249 248 248 243 241 247 259 254 255 253 250 251 253 257 257 256 259 268 263 265 271 275 277 275 275 280 291 280 290
226 238 252 253 252 255 259 262 259 256 253 251 250 247 249 252 251 248 246 245 245 248 253 256 253 250 250 250 257 261 260 263 264 263 263 271 276 276 271 259 261 272 284
226 236 253 251 252 256 257 257 257 253 251 247 244 243 246 244 240 239 241 243 243 243 243 244 245 247 250 250 251 255 253 255 258 259 260 270 275 277 264 259 263 274 278
219 232 236 244 244 254 257 257 258 266 286 262 251 255 251 249 247 248 243 240 243 248 247 246 245 244 243 244 246 247 251 253 254 259 260 264 270 269 263 260 265 271 276
217 218 234 226 236 251 258 268 271 272 271 277 285 231 269 250 253 250 251 245 245 245 244 246 243 240 239 244 247 245 246 250 252 254 256 258 261 262 262 263 262 269 272
219 228 237 230 248 253 261 269 274 278 281 280 272 265 259 246 253 261 238 250 249 248 249 246 245 245 240 240 245 248 246 246 251 253 254 255 258 260 258 257 262 269 273
223 234 248 252 254 260 263 267 275 279 280 280 276 274 270 265 261 259 257 252 259 254 249 250 249 244 245 248 249 248 248 250 250 253 255 255 256 257 259 259 260 266 271
237 237 247 249 255 263 269 272 274 275 278 278 274 272 270 269 266 262 259 256 257 256 252 256 258 252 245 246 252 250 249 250 252 253 255 257 257 257 259 259 262 267 268
242 245 248 253 260 265 269 273 276 278 278 276 273 271 268 264 262 262 261 258 256 256 252 254 255 257 247 245 247 252 254 255 256 254 254 256 257 258 258 257 259 262 264
245 251 256 259 263 266 271 275 277 283 286 287 286 281 275 271 266 261 259 258 257 255 254 252 252 252 246 245 248 252 256 257 257 251 249 253 255 255 253 251 252 255 258
246 255 259 262 265 268 272 276 284 297 306 309 311 296 283 275 269 263 259 256 254 254 253 253 248 246 252 257 253 254 257 264 268 278 242 265 265 259 245 250 254 264 270
249 256 260 261 262 264 269 279 295 313 330 323 317 305 294 285 276 268 259 254 251 250 249 249 249 251 251 255 257 257 259 264 266 268 266 273 275 238 275 252 257 253 251
256 257 253 248 251 259 274 286 288 318 342 344 342 328 307 292 283 275 270 258 250 246 243 242 245 249 251 252 253 255 256 257 259 265 273 271 269 284 243 234 233 248 209
253 239 227 229 249 274 270 280 296 294 326 344 350 348 333 315 311 284 280 266 251 245 241 238 239 242 248 252 252 253 254 256 257 261 269 275 281 266 244 206 245 205 213
211 203 204 231 213 262 280 302 300 301 319 340 353 354 336 334 331 293 286 267 281 199 254 236 236 240 244 248 252 249 253 257 259 264 269 273 280 227 211 204 210 238 150
188 190 186 197 242 276 297 317 327 328 336 347 353 357 351 350 335 305 284 265 226 195 208 230 232 232 238 239 245 242 248 259 258 266 272 266 230 197 199 244 144 132 162
195 193 186 217 287 304 309 321 331 344 353 3 22 23 25 30 19 343 230 176 198 271 189 227 221 208 219 228 230 240 245 250 252 247 216 200 203 190 165 153 172 173 196
203 201 206 240 292 317 320 326 335 349 354 16 39 38 34 39 43 50 61 67 91 177 220 289 221 187 195 231 231 244 244 215 180 159 149 164 161 166 175 179 194 184 159
213 215 227 248 280 315 315 325 332 342 349 14 36 37 47 49 43 61 60 58 60 71 92 113 133 137 122 129 135 148 140 128 139 136 162 162 170 201 209 190 173 154 176
220 223 234 251 274 303 306 314 322 324 340 13 25 43 35 47 61 61 59 64 75 87 96 107 125 122 117 124 125 131 138 149 151 161 173 204 219 201 180 169 174 182 196
221 228 235 251 271 286 290 301 307 300 310 359 30 38 42 44 55 64 60 61 65 85 97 100 105 109 117 120 133 143 145 168 197 214 218 201 194 180 181 194 199 203 220
224 228 234 247 258 268 273 279 290 276 265 285 354 50 71 57 55 52 53 52 49 51 63 85 98 118 117 131 148 155 166 168 170 177 186 189 184 186 201 210 215 223 234
221 230 232 241 250 257 262 267 275 266 252 236 238 187 97 89 90 96 87 87 94 97 105 119 142 153 152 154 159 164 166 166 177 192 203 204 200 196 197 207 218 228 246
220 223 231 239 241 238 236 234 241 252 254 235 222 217 219 201 204 263 188 134 118 96 100 108 97 93 106 142 178 150 139 175 196 204 216 215 212 208 214 224 234 250 269
223 226 225 232 233 230 225 240 270 263 248 245 225 204 211 217 216 218 232 233 228 217 209 231 261 256 240 247 266 278 260 227 226 236 232 234 237 237 244 248 256 266 273